This demonstration page uses our WeatherBlox Daily Observations layout. Learn more.

Left ArrowRight Arrow

41.86663, -103.66717

Hourly Observations for October 19, 2018

Temp ( °F °C ) Dew Point ( °F °C ) Humidity (%) Winds ( mph kmh ) Pressure ( in mb ) Visibility ( mi km ) Precip ( " mm )
12:53 am 00:53 Clear 40 4.4 35 1.7 83 83 NNW 6 9 30.03 1017 10 16 0.00 0.00
1:53 am 01:53 Clear 39 3.9 35 1.7 86 86 NNW 6 9 30.03 1017 10 16 0.00 0.00
2:53 am 02:53 Clear 38 3.3 35 1.7 89 89 NW 8 13 30.04 1017 10 16 0.00 0.00
3:53 am 03:53 Clear 39 3.9 36 2.2 89 89 NW 7 11 30.05 1018 10 16 0.00 0.00
4:53 am 04:53 Clear 36 2.2 34 1.1 93 93 NW 6 9 30.09 1019 10 16 0.00 0.00
5:53 am 05:53 Clear 36 2.2 34 1.1 93 93 NW 9 15 30.13 1020 10 16 0.00 0.00
6:53 am 06:53 Clear 37 2.8 34 1.1 89 89 NW 8 13 30.17 1022 10 16 0.00 0.00
7:53 am 07:53 Sunny 41 5 36 2.2 82 82 WNW 12 19 30.22 1023 10 16 0.00 0.00
8:53 am 08:53 Sunny 48 8.9 36 2.2 63 63 WNW 15 24 30.24 1024 10 16 0.00 0.00
9:53 am 09:53 Sunny 54 12.2 36 2.2 51 51 WNW 16 26 30.24 1024 10 16 0.00 0.00
10:53 am 10:53 Sunny 64 17.8 32 0 30 30 NNW 21 33 30.24 1024 10 16 0.00 0.00
11:53 am 11:53 Sunny 65 18.3 32 0 29 29 NNE 15 24 30.26 1025 10 16 0.00 0.00
12:53 pm 12:53 Sunny 66 18.9 32 0 28 28 N 9 15 30.26 1025 10 16 0.00 0.00
1:53 pm 13:53 Sunny 67 19.4 32 0 27 27 N 12 19 30.24 1024 10 16 0.00 0.00
2:53 pm 14:53 Sunny 68 20 30 -1.1 24 24 WNW 13 20 30.24 1024 10 16 0.00 0.00
3:53 pm 15:53 Sunny 68 20 27 -2.8 21 21 NNW 10 17 30.23 1024 10 16 0.00 0.00
4:53 pm 16:53 Sunny 66 18.9 27 -2.8 23 23 N 13 20 30.25 1024 10 16 0.00 0.00
5:53 pm 17:53 Sunny 59 15 29 -1.7 32 32 N 8 13 30.27 1025 10 16 0.00 0.00
6:53 pm 18:53 Clear 53 11.7 29 -1.7 40 40 Calm 30.30 1026 10 16 0.00 0.00
7:53 pm 19:53 Clear 53 11.7 29 -1.7 40 40 W 3 6 30.32 1027 10 16 0.00 0.00
8:53 pm 20:53 Clear 44 6.7 31 -0.6 60 60 NNW 5 7 30.32 1027 10 16 0.00 0.00
9:53 pm 21:53 Clear 39 3.9 31 -0.6 73 73 NNE 7 11 30.34 1027 10 16 0.00 0.00
10:53 pm 22:53 Clear 39 3.9 31 -0.6 73 73 Calm 30.32 1027 10 16 0.00 0.00
11:53 pm 23:53 Clear with Light Snow 34 1.1 31 -0.6 89 89 NNW 6 9 30.35 1028 9 14 0.00 0.03

Powered by AerisWeather